Regional Weather Roundup
Issued by NWS

Home | Current Version | Previous Version | Graphics & Text | Print | Product List | Glossary On
Versions: 1 2 3 4 5 6 7 8 9 10 11 12 13 14 15 16 17 18 19 20 21 22 23 24 25 26 27 28 29 30 31 32 33 34 35 36 37 38 39 40 41 42 43 44 45 46 47 48 49 50
000
ASUS45 KSLC 020310
RWRUT
UTAH REGIONAL WEATHER ROUNDUP
NATIONAL WEATHER SERVICE SALT LAKE CITY UT
900 PM MDT SAT AUG 01 2015

UTZ001>011-023>025-020400-

NORTHERN UTAH

CITY           SKY/WX    TMP DP  RH WIND       PRES   REMARKS
BRIGHAM CITY   MOCLDY    87  34  15 S6        30.00R
HILL AFB       PTCLDY    83  41  22 E2        30.04S
LOGAN          CLEAR     77  46  33 N3        30.01R
OGDEN          PTCLDY    84  43  23 SE5       30.00F
PROVO AIRPORT  MOCLDY    79  45  29 N3        30.01F
SALT LAKE CITY MOCLDY    85  34  16 W6        29.98S
VERNAL         MOCLDY    81  41  24 CALM      30.06R
WENDOVER       MOCLDY    90  28  11 S3        30.00F
HEBER CITY     MOCLDY    73  39  29 CALM      30.10R
WEST JORDAN    CLEAR     82  36  18 CALM      30.03S

$$

UTZ012>022-026-027-020400-

SOUTHERN/CENTRAL UTAH

CITY           SKY/WX    TMP DP  RH WIND       PRES   REMARKS
BLANDING       MOCLDY    72  58  61 CALM      30.24R
BRYCE CANYON   MOCLDY    64  47  53 S3        30.28S
CEDAR CITY     CLOUDY    72  51  47 S9        30.14R
DELTA          MOCLDY    86  26  11 N8        30.01R
HANKSVILLE     PTCLDY    84  46  26 SE5       30.01S
MILFORD        CLOUDY    80  52  37 S15       30.04R
MOAB/CYNLANDS  CLEAR     86  50  28 SE8       30.01R
PRICE          MOCLDY    83  47  28 SE17      30.11R
ST GEORGE      MOCLDY    84  52  32 W10       29.97S
KANAB          CLOUDY    77  55  47 CALM      30.14S

$$

REGIONAL REPORTS     COLORADO/ARIZONA

CITY           SKY/WX    TMP DP  RH WIND       PRES   REMARKS
CRAIG, CO      CLOUDY    71  45  39 NW6       30.14S
GRAND JUNCTION MOCLDY    80  46  30 SE15      30.08R
RIFLE          CLOUDY    80  45  28 S12       30.11F
MONTROSE       LGT RAIN  65  56  72 S18       30.21R
CORTEZ         MOCLDY    69  62  78 S7        30.18R
PAGE, AZ       PTCLDY    86  52  30 W8        30.01R
GRAND CANYON   CLOUDY    67  55  65 CALM      30.23R
KINGMAN        PTCLDY    77  55  46 NE5       30.02R
FLAGSTAFF      MOCLDY    64  54  69 W5        30.28R THUNDER

$$

REGIONAL REPORTS    NEVADA/IDAHO/WYOMING

CITY           SKY/WX    TMP DP  RH WIND       PRES   REMARKS
LAS VEGAS, NV  MOCLDY    87  52  29 NW10      29.88S
ELY            CLOUDY    77  37  23 SW16      30.17R
ELKO           PTCLDY    83  28  13 CALM      30.03S
POCATELLO, ID  CLEAR     81  37  20 S5        30.02R
BURLEY         PTCLDY    78  49  35 CALM      29.97S
EVANSTON, WY   PTCLDY    72  25  17 N8        30.23S
ROCK SPRINGS   PTCLDY    74  24  15 W7        30.18S
KEMMERER       PTCLDY    70  28  21 N10       30.26R

$$



USA.gov is the U.S. government's official web portal to all federal, state and local government web resources and services.